Weather History for Lahr, Germany

Change the Weather History Date:

Friday, May 11, 2012

  Actual Average (LFST) Record (LFST)
Temperature  
Mean Temperature 74 °F -  
Max Temperature 89 °F 68 °F 90 °F (2012)
Min Temperature 58 °F 49 °F 39 °F (2005)
Cooling Degree Days 8    
Growing Degree Days 24 (Base 50)    
Moisture  
Dew Point 57 °F    
Average Humidity 49    
Maximum Humidity 88    
Minimum Humidity 19    
Precipitation  
Precipitation 0.24 in - - ()
Sea Level Pressure  
Sea Level Pressure 30.15 in    
Wind  
Wind Speed 7 mph ()    
Max Wind Speed 16 mph    
Max Gust Speed -    
Visibility 9.8 miles    
Events Rain    
Averages and records for this station are not official NWS values.
T = Trace of Precipitation, MM = Missing Value Source: Averaged Metar Reports

Daily Weather History Graph

Daily Weather History Graph

Search for Another Location

Airport:

Trip Planner

Search our weather history database for the weather conditions in past years. The results will help you decide how hot, cold, wet, or windy it might be!

Date:

Astronomy

May. 11, 2012 Rise Set
Actual Time 5:53 AM CEST 8:57 PM CEST
Civil Twilight 5:16 AM CEST 9:34 PM CEST
Nautical Twilight 4:29 AM CEST 10:22 PM CEST
Astronomical Twilight 3:30 AM CEST 11:21 PM CEST
Moon 1:24 AM CEST (5/11) 11:11 AM CEST (5/11)
Length of Visible Light 16h 17m
Length of Day
15h 03m
Waning Gibbous, 66% of the Moon is Illuminated
May 11
Waning Gibbous
May 12
Last Quarter
May 21
New
May 28
First Quarter
Jun 4
Full

Hourly Weather History & Observations

Time (CEST) Temp. Heat Index Dew Point Humidity Pressure Visibility Wind Dir Wind Speed Gust Speed Precip Events Conditions
12:00 AM 69 °F - 56 °F 55% 30.16 in 44 mi South 6.7 mph - -  
1:00 AM 66 °F - 57 °F 64% 30.17 in 44 mi South 4.5 mph - -  
2:00 AM 63 °F - 57 °F 74% 30.17 in 28 mi West 4.5 mph - -  
3:00 AM 63 °F - 57 °F 75% 30.18 in 25 mi West 4.5 mph - -  
4:00 AM 60 °F - 56 °F 81% 30.18 in 25 mi SW 4.5 mph - -  
5:00 AM 60 °F - 56 °F 82% 30.19 in 22 mi SSW 2.2 mph - -  
6:00 AM 58 °F - 55 °F 86% 30.20 in 22 mi SW 4.5 mph - -   Partly Cloudy
7:00 AM 59 °F - 56 °F 88% 30.19 in 25 mi WSW 6.7 mph - -   Scattered Clouds
7:50 AM 64.4 °F - 57.2 °F 77% 30.18 in - WSW 5.8 mph - N/A   Clear
8:00 AM 64 °F - 57 °F 73% 30.19 in 31 mi SW 6.7 mph - -   Scattered Clouds
8:20 AM 64.4 °F - 59.0 °F 83% 30.18 in - WSW 2.3 mph - N/A   Clear
8:50 AM 68.0 °F - 59.0 °F 73% 30.18 in - SW 4.6 mph - N/A   Clear
9:00 AM 68 °F - 59 °F 66% 30.19 in 37 mi WSW 4.5 mph - -   Scattered Clouds
9:20 AM 69.8 °F - 59.0 °F 68% 30.18 in - SW 3.5 mph - N/A   Clear
9:50 AM 75.2 °F - 60.8 °F 61% 30.18 in - Variable 2.3 mph - N/A   Clear
10:00 AM 75 °F - 60 °F 50% 30.18 in 37 mi SW 2.2 mph - -   Scattered Clouds
10:20 AM 77.0 °F - 55.4 °F 47% 30.18 in - SW 6.9 mph - N/A   Clear
10:50 AM 78.8 °F - 57.2 °F 47% 30.18 in - SSW 9.2 mph - N/A   Clear
11:00 AM 80 °F - 54 °F 31% 30.17 in 37 mi SSW 11.2 mph - -   Scattered Clouds
11:20 AM 80.6 °F 80.5 °F 55.4 °F 42% 30.18 in - South 11.5 mph - N/A   Clear
11:50 AM 80.6 °F 80.3 °F 53.6 °F 39% 30.15 in - South 11.5 mph - N/A   Clear
12:00 PM 82 °F - 52 °F 25% 30.15 in 37 mi SSW 11.2 mph - -   Scattered Clouds
12:20 PM 82.4 °F 82.0 °F 57.2 °F 42% 30.15 in - South 12.7 mph - N/A   Clear
12:50 PM 82.4 °F 81.4 °F 53.6 °F 37% 30.15 in - South 13.8 mph - N/A   Clear
1:00 PM 85 °F - 53 °F 23% 30.14 in 44 mi SSW 13.4 mph - -   Scattered Clouds
1:20 PM 84.2 °F 83.5 °F 57.2 °F 40% 30.15 in - SSW 12.7 mph - N/A   Clear
1:50 PM 84.2 °F 83.8 °F 59.0 °F 42% 30.15 in - SSW 11.5 mph - N/A   Clear
2:00 PM 85 °F - 56 °F 26% 30.13 in 44 mi SW 8.9 mph - -   Scattered Clouds
2:20 PM 86.0 °F 85.4 °F 59.0 °F 40% 30.12 in - SSW 8.1 mph - N/A   Clear
2:50 PM 86.0 °F 84.9 °F 57.2 °F 37% 30.12 in - South 10.4 mph - N/A   Clear
3:00 PM 87 °F - 55 °F 23% 30.12 in 44 mi South 11.2 mph - -   Scattered Clouds
3:20 PM 86.0 °F 84.9 °F 57.2 °F 37% 30.12 in - SSW 8.1 mph - N/A   Clear
3:50 PM 86.0 °F 85.4 °F 59.0 °F 40% 30.12 in - SSW 11.5 mph - N/A   Clear
4:00 PM 87 °F - 56 °F 25% 30.10 in 44 mi SW 11.2 mph - -   Scattered Clouds
4:20 PM 86.0 °F 85.4 °F 59.0 °F 40% 30.09 in - SSW 10.4 mph - N/A   Clear
4:50 PM 87.8 °F 86.1 °F 55.4 °F 33% 30.09 in - SSW 10.4 mph - N/A   Clear
5:00 PM 89 °F - 53 °F 19% 30.09 in 44 mi SSW 11.2 mph - -   Scattered Clouds
5:20 PM 87.8 °F 86.1 °F 55.4 °F 33% 30.09 in - South 11.5 mph - N/A   Clear
5:50 PM 87.8 °F 86.1 °F 55.4 °F 33% 30.09 in - SSW 10.4 mph - N/A   Clear
6:00 PM 89 °F - 53 °F 20% 30.07 in 44 mi SSW 13.4 mph - -   Scattered Clouds
6:20 PM 86.0 °F 84.9 °F 57.2 °F 37% 30.09 in - WSW 5.8 mph - N/A   Clear
6:50 PM 86.0 °F 84.9 °F 57.2 °F 37% 30.09 in 6.2 mi West 5.8 mph - N/A   Partly Cloudy
7:00 PM 85 °F - 60 °F 33% 30.08 in 44 mi West 6.7 mph - -   Scattered Clouds
7:20 PM 82.4 °F 82.0 °F 57.2 °F 42% 30.09 in 6.2 mi SW 4.6 mph - N/A   Scattered Clouds
8:00 PM 81 °F - 56 °F 32% 30.09 in 37 mi West 4.5 mph - -   Scattered Clouds
9:00 PM 71 °F - 62 °F 65% 30.15 in 28 mi NNE 11.2 mph - -   Mostly Cloudy
10:00 PM 68 °F - 62 °F 74% 30.21 in 28 mi NNE 15.7 mph - - Rain Rain
11:00 PM 66 °F - 61 °F 78% 30.25 in 17 mi NNE 11.2 mph - -   Clear